TimeEDT,TemperatureF,Dew PointF,Humidity,Sea Level PressureIn,VisibilityMPH,Wind Direction,Wind SpeedMPH,Gust SpeedMPH,PrecipitationIn,Events,Conditions,WindDirDegrees,DateUTC
12:53 AM,69.1,66.9,93,29.78,10.0,Calm,Calm,-,0.02,Rain,Light Rain,0,2013-06-27 04:53:00
1:39 AM,69.8,68.0,94,29.80,4.0,Calm,Calm,-,0.00,,Overcast,0,2013-06-27 05:39:00
1:53 AM,69.1,68.0,96,29.79,6.0,Calm,Calm,-,0.00,,Overcast,0,2013-06-27 05:53:00
2:50 AM,69.8,66.2,88,29.80,7.0,Calm,Calm,-,N/A,,Mostly Cloudy,0,2013-06-27 06:50:00
2:53 AM,69.1,66.9,93,29.78,6.0,Calm,Calm,-,N/A,,Mostly Cloudy,0,2013-06-27 06:53:00
3:13 AM,68.0,66.2,94,29.80,6.0,Calm,Calm,-,N/A,,Overcast,0,2013-06-27 07:13:00
3:53 AM,69.1,66.9,93,29.77,8.0,Calm,Calm,-,N/A,,Overcast,0,2013-06-27 07:53:00
4:37 AM,69.8,66.2,88,29.78,10.0,Calm,Calm,-,N/A,,Overcast,0,2013-06-27 08:37:00
4:53 AM,69.1,66.9,93,29.76,9.0,Calm,Calm,-,N/A,,Overcast,0,2013-06-27 08:53:00
5:53 AM,69.1,68.0,96,29.77,3.0,Calm,Calm,-,N/A,,Overcast,0,2013-06-27 09:53:00
6:24 AM,69.8,68.0,94,29.79,2.5,Variable,3.5,-,N/A,,Overcast,0,2013-06-27 10:24:00
6:41 AM,69.8,68.0,94,29.79,3.0,Variable,3.5,-,N/A,,Overcast,0,2013-06-27 10:41:00
6:53 AM,69.1,68.0,96,29.79,3.0,West,4.6,-,N/A,,Overcast,260,2013-06-27 10:53:00
7:00 AM,69.8,68.0,94,29.79,2.5,WSW,3.5,-,N/A,,Overcast,240,2013-06-27 11:00:00
7:09 AM,69.8,68.0,94,29.80,4.0,WSW,4.6,-,N/A,,Overcast,250,2013-06-27 11:09:00
7:34 AM,69.8,68.0,94,29.80,6.0,WSW,3.5,-,N/A,,Overcast,240,2013-06-27 11:34:00
7:53 AM,70.0,69.1,97,29.78,7.0,Variable,3.5,-,N/A,,Overcast,0,2013-06-27 11:53:00
8:53 AM,72.0,69.1,91,29.78,9.0,Calm,Calm,-,N/A,,Overcast,0,2013-06-27 12:53:00
9:53 AM,73.0,70.0,90,29.78,7.0,Variable,6.9,-,0.00,,Overcast,0,2013-06-27 13:53:00
10:10 AM,73.4,69.8,88,29.79,9.0,Variable,4.6,-,N/A,,Overcast,0,2013-06-27 14:10:00
10:53 AM,75.0,70.0,84,29.78,10.0,WSW,4.6,-,N/A,,Overcast,250,2013-06-27 14:53:00
11:43 AM,77.0,71.6,83,29.80,10.0,West,5.8,-,N/A,,Mostly Cloudy,280,2013-06-27 15:43:00
11:53 AM,78.1,70.0,76,29.78,10.0,WNW,10.4,-,N/A,,Overcast,300,2013-06-27 15:53:00
12:02 PM,78.8,69.8,74,29.79,10.0,NW,8.1,-,N/A,,Mostly Cloudy,310,2013-06-27 16:02:00
12:53 PM,81.0,70.0,69,29.78,10.0,WNW,8.1,-,0.01,,Mostly Cloudy,290,2013-06-27 16:53:00
1:40 PM,82.4,69.8,66,29.79,10.0,Variable,6.9,-,N/A,,Overcast,0,2013-06-27 17:40:00
1:49 PM,82.4,69.8,66,29.79,10.0,WNW,9.2,16.1,N/A,,Mostly Cloudy,300,2013-06-27 17:49:00
1:53 PM,84.0,71.1,65,29.77,10.0,WNW,8.1,16.1,N/A,,Mostly Cloudy,290,2013-06-27 17:53:00
2:53 PM,84.9,69.1,59,29.77,10.0,Variable,4.6,-,N/A,,Scattered Clouds,0,2013-06-27 18:53:00
3:53 PM,87.1,70.0,57,29.76,10.0,West,8.1,17.3,N/A,,Partly Cloudy,280,2013-06-27 19:53:00
4:53 PM,87.1,70.0,57,29.75,10.0,West,8.1,-,N/A,,Scattered Clouds,280,2013-06-27 20:53:00
5:53 PM,87.1,69.1,55,29.74,10.0,WNW,8.1,17.3,N/A,,Partly Cloudy,290,2013-06-27 21:53:00
6:53 PM,84.0,68.0,58,29.73,10.0,WNW,6.9,17.3,N/A,,Clear,290,2013-06-27 22:53:00
7:53 PM,82.0,69.1,65,29.75,10.0,WNW,6.9,-,N/A,,Clear,300,2013-06-27 23:53:00
8:53 PM,79.0,69.1,72,29.73,10.0,Calm,Calm,-,N/A,,Clear,0,2013-06-28 00:53:00
9:53 PM,73.0,70.0,90,29.73,10.0,Calm,Calm,-,N/A,,Clear,0,2013-06-28 01:53:00
10:53 PM,72.0,69.1,91,29.72,10.0,Calm,Calm,-,N/A,,Clear,0,2013-06-28 02:53:00
11:53 PM,72.0,70.0,93,29.70,10.0,Calm,Calm,-,N/A,,Clear,0,2013-06-28 03:53:00